Theta_e
311 310 310 310 312 311 311 310 308 308 308 309 311 314 316 318 315 311 315 315 315 314 325 331 333 333 340 345 348 351 358 358 356 355 355 351 350 351 351 347 347 347 345 344 344
313 309 308 308 309 312 311 310 309 308 308 309 309 312 314 317 318 320 318 312 311 312 323 331 329 333 341 342 347 352 358 356 352 353 353 351 349 349 350 349 348 346 346 344 344
312 308 307 307 307 308 311 311 310 309 309 309 308 309 313 316 323 321 319 311 310 312 326 328 328 333 337 336 348 349 354 350 352 351 349 348 347 349 350 351 348 348 345 344 343
309 310 310 309 307 307 308 309 309 309 309 309 308 309 313 316 325 323 315 312 310 313 327 326 328 329 331 341 347 351 349 353 352 350 349 348 348 349 348 349 347 347 344 343 342
310 310 309 307 307 306 306 307 307 307 307 307 308 308 313 323 322 319 319 315 310 320 327 327 327 328 332 340 347 349 349 352 351 345 346 346 349 348 350 346 346 345 343 341 340
310 312 316 316 316 315 312 309 308 308 307 307 308 308 314 324 320 322 325 313 315 320 326 326 327 328 331 342 347 348 349 349 348 348 348 348 349 348 345 344 345 344 341 340 339
314 312 315 315 315 316 316 317 315 310 310 307 307 308 320 322 318 325 326 318 321 322 325 325 325 326 334 344 344 344 351 350 348 347 347 345 345 348 345 344 344 342 339 339 339
314 313 312 314 315 315 316 316 318 312 315 309 309 315 323 318 318 325 323 322 322 323 325 325 325 326 336 342 342 347 349 356 349 346 346 345 348 347 344 343 341 339 339 339 339
312 314 315 314 315 316 316 317 318 317 313 311 318 322 321 316 318 323 323 322 321 322 324 324 323 326 335 344 345 346 348 358 353 347 346 348 349 347 343 341 339 339 340 341 341
312 312 314 315 315 315 317 318 319 318 318 317 319 321 321 322 322 321 320 321 321 320 321 322 323 328 335 343 348 345 347 354 355 350 348 349 351 347 346 340 340 340 341 342 342
310 312 312 314 315 315 317 321 325 327 324 323 322 322 321 321 321 321 318 318 320 320 322 322 324 328 333 342 341 340 342 354 354 352 349 350 351 347 345 343 342 340 341 342 343
311 310 311 313 315 315 317 322 321 321 325 322 321 321 321 320 322 322 319 318 318 321 322 323 324 327 330 340 341 338 340 357 353 350 347 351 353 348 340 340 346 341 341 343 343
310 310 311 314 315 316 319 321 321 321 325 322 322 322 322 321 322 323 321 322 320 320 321 325 325 326 329 338 341 338 344 354 356 352 348 350 356 353 343 338 341 345 343 343 345
309 310 312 315 318 320 322 321 321 322 327 325 324 323 322 322 323 323 321 323 322 322 322 323 326 325 328 336 339 339 345 349 352 357 359 351 361 357 353 344 343 345 344 344 345
308 311 314 315 320 322 321 321 322 322 329 324 324 322 323 324 323 323 322 323 323 321 322 323 326 326 330 336 337 337 336 346 349 351 353 353 353 358 353 346 344 343 345 344 344
310 314 316 316 318 321 321 321 322 326 326 325 324 325 324 324 323 322 322 323 324 322 322 325 325 328 329 333 337 334 334 342 345 346 354 350 349 362 353 348 344 346 345 344 345
314 316 318 318 323 321 321 323 329 326 324 324 324 324 324 325 325 324 323 324 327 324 323 325 329 328 330 332 335 334 336 345 347 346 346 349 345 353 353 349 349 347 345 343 341
316 318 318 319 320 321 322 327 326 323 324 324 324 323 324 326 326 325 325 326 326 325 326 324 329 329 330 332 334 335 338 345 348 344 345 343 343 352 349 348 348 346 347 344 344
318 320 324 324 322 323 325 327 324 323 322 323 324 324 324 323 327 326 325 326 326 326 326 325 327 328 328 329 331 334 339 341 342 342 343 348 352 349 346 348 348 349 347 345 345
323 325 322 321 322 323 326 320 323 321 321 323 324 324 326 325 323 327 327 326 327 326 326 328 327 329 328 327 328 329 334 339 341 344 342 348 349 352 350 349 348 348 349 348 347
321 326 321 321 321 324 324 321 321 320 320 323 323 324 324 326 325 326 329 328 328 328 325 327 328 329 327 327 328 327 329 334 337 337 339 341 348 352 351 350 349 348 348 349 349
324 327 322 320 324 321 323 321 318 320 321 322 322 324 326 327 327 328 328 325 324 325 326 326 327 328 328 327 326 328 327 332 337 341 337 336 347 351 350 349 348 348 350 349 348
325 323 320 321 326 324 321 321 319 320 322 323 324 323 325 326 327 326 327 324 324 325 327 328 327 329 331 327 326 326 328 328 330 332 335 335 353 345 351 350 349 349 348 348 347
323 324 322 320 319 323 322 321 321 319 320 321 323 322 324 326 326 325 325 324 324 326 322 325 328 328 331 330 329 327 328 328 328 330 331 335 354 354 353 355 354 352 351 349 349
322 324 322 324 322 321 321 320 320 319 319 320 324 323 324 327 327 326 325 325 325 324 327 327 329 330 330 331 330 327 326 328 328 330 331 332 340 351 352 354 351 352 352 350 350
326 323 320 322 320 322 317 321 319 319 320 320 324 323 324 326 328 327 325 325 327 327 328 329 331 331 331 329 330 328 327 327 328 329 330 332 335 349 350 350 350 349 351 350 351
325 322 321 320 322 321 321 319 319 319 318 317 318 323 324 323 322 322 323 322 323 325 326 328 331 332 330 328 330 330 330 330 329 329 331 338 346 347 352 350 348 347 346 348 348
Wind_Speed
12 11 10 8 8 8 9 9 8 7 7 8 9 9 7 8 8 11 10 10 15 9 15 10 12 12 11 13 7 5 4 3 6 8 7 6 6 4 8 12 7 6 22 26 25
13 13 11 10 8 8 8 8 8 8 7 8 8 8 8 7 9 15 14 13 14 13 15 16 15 13 15 13 6 6 3 5 6 9 12 9 12 10 12 12 9 20 25 26 24
14 13 11 10 9 7 8 8 7 7 7 7 7 6 6 5 9 8 20 16 15 16 15 14 11 13 17 11 7 5 1 2 3 13 20 10 13 14 13 9 18 26 30 26 25
15 14 12 10 9 7 7 8 8 8 7 6 5 5 4 5 2 3 9 12 16 17 17 17 14 16 15 10 10 3 3 11 14 20 15 8 7 5 8 9 17 25 27 26 25
14 14 13 12 11 10 8 7 7 7 6 4 4 4 4 7 8 3 6 9 18 19 19 19 17 17 13 10 9 6 4 14 16 16 12 7 6 6 9 11 20 25 25 25 23
13 12 12 12 13 13 12 11 9 7 4 2 3 3 4 13 2 3 4 12 16 19 19 19 15 16 11 10 8 10 16 18 20 15 7 9 6 3 12 16 24 26 25 23 22
12 10 9 11 12 12 12 11 10 8 6 2 2 4 8 4 2 3 8 13 16 17 17 18 14 13 10 10 6 7 18 16 12 7 4 9 3 5 14 22 26 25 24 22 21
10 10 9 9 10 12 12 12 11 3 9 3 2 3 7 6 4 5 9 13 15 14 14 15 12 17 14 4 7 13 15 10 11 12 4 1 7 11 18 24 25 24 23 21 19
11 9 9 8 9 11 13 13 9 2 5 3 5 4 4 1 6 9 11 15 16 13 12 12 10 18 15 11 13 14 9 16 8 13 7 7 9 11 19 22 24 24 23 21 19
10 10 9 8 7 9 12 14 7 3 5 1 4 7 5 8 9 11 10 15 17 14 11 13 11 14 12 13 14 15 15 16 13 14 13 12 8 11 9 15 23 23 24 22 21
10 10 10 8 5 6 9 11 4 2 9 10 3 4 5 5 11 9 12 16 17 15 14 17 12 17 20 21 5 8 13 19 15 14 14 13 10 16 16 9 16 24 25 24 22
11 11 11 8 4 4 6 4 8 8 7 0 4 5 3 10 13 12 15 14 14 15 19 11 16 17 19 13 10 13 3 20 11 16 5 11 16 20 20 23 19 21 25 24 22
11 10 10 6 3 4 5 8 8 9 9 6 6 6 8 9 14 17 18 10 15 17 17 14 15 18 17 15 10 16 4 17 19 19 14 14 10 20 22 20 22 19 26 26 27
12 10 7 2 2 2 3 5 6 8 6 13 9 5 7 7 8 16 17 10 11 15 14 14 9 15 14 14 15 16 4 14 23 23 9 21 4 15 18 19 22 19 27 25 26
11 9 4 3 3 5 5 8 8 1 1 4 8 3 8 9 18 15 16 10 11 12 10 15 10 12 16 18 16 2 11 16 33 14 9 17 6 11 20 20 23 27 29 31 26
9 5 0 1 4 5 10 11 6 8 3 5 4 4 11 10 8 15 16 15 10 13 13 17 11 12 17 18 12 4 10 7 8 5 11 13 7 13 16 25 26 35 36 37 39
6 1 3 5 2 8 11 9 8 3 5 3 3 5 9 12 11 11 16 15 11 10 13 14 11 15 16 18 8 10 12 5 7 7 3 22 11 9 24 31 33 26 34 29 30
1 3 4 6 8 10 10 12 3 3 9 2 3 4 12 6 12 13 13 15 18 14 10 14 12 16 11 17 13 17 13 7 9 10 10 10 6 11 21 34 32 32 30 27 25
3 0 3 4 3 6 12 7 7 8 6 7 10 10 8 7 7 12 14 15 14 11 16 14 18 20 15 14 18 16 16 18 14 18 4 9 9 11 12 22 23 32 35 33 30
4 6 3 2 4 6 12 6 4 7 8 8 9 3 7 5 8 10 8 12 6 12 16 10 11 19 17 14 17 17 17 16 11 19 15 12 9 12 17 17 17 25 36 39 35
6 8 3 2 7 15 4 5 3 5 8 8 7 9 10 7 9 7 4 16 5 10 8 13 9 10 12 18 19 13 14 16 16 16 7 8 3 2 20 18 19 25 30 32 20
11 5 4 4 14 4 7 6 3 4 1 2 7 7 6 11 11 4 3 13 16 11 14 14 8 13 19 15 20 18 18 15 12 20 14 4 5 4 6 14 22 19 26 31 34
11 5 3 5 7 4 5 5 3 7 4 4 5 3 5 5 7 4 15 10 8 10 7 5 10 12 7 16 18 19 16 21 20 17 17 12 4 6 3 6 14 29 23 26 27
8 5 7 6 2 8 1 3 1 4 4 4 7 6 7 6 5 5 1 7 11 8 9 8 14 13 4 5 11 17 20 20 19 14 17 14 20 15 14 12 10 14 14 21 25
12 3 6 1 5 3 4 1 2 3 1 3 5 6 9 3 5 6 6 8 13 6 6 9 17 15 6 17 22 19 21 18 18 19 17 3 11 21 20 18 17 16 15 17 21
9 5 7 1 2 6 8 3 4 4 6 3 4 3 6 2 11 5 3 3 4 14 12 8 9 11 10 10 16 11 20 15 18 20 15 5 15 3 24 26 22 18 16 16 14
3 6 9 10 6 7 7 3 3 1 2 1 5 9 6 6 9 6 3 5 4 3 5 8 4 5 10 10 10 6 1 9 8 10 7 8 3 7 19 13 17 17 12 14 17
Wind_Direction
3 353 343 329 313 302 295 291 283 283 286 277 272 266 257 261 260 265 246 231 215 207 180 181 194 207 212 232 203 269 261 255 176 169 126 157 130 70 108 132 155 119 140 145 146
1 354 346 338 328 308 299 296 288 282 284 285 277 270 268 260 267 261 238 226 222 193 179 187 194 199 209 227 190 209 291 2 349 144 157 152 153 153 153 152 137 125 133 145 147
0 357 353 344 332 324 305 301 298 292 288 287 285 269 266 274 287 221 215 222 206 190 184 192 198 204 232 235 206 234 355 34 93 122 137 131 153 164 140 174 153 140 147 151 149
3 3 359 357 347 338 326 311 307 301 295 288 278 266 234 247 246 194 209 208 199 182 189 197 208 212 243 220 199 196 262 37 102 130 132 137 120 101 139 176 145 149 152 152 153
10 11 19 24 23 17 3 346 331 320 313 299 266 249 204 232 260 289 226 203 184 180 196 199 206 212 235 218 172 141 84 95 122 123 126 125 78 142 144 144 147 150 155 156 156
14 22 29 36 35 32 30 24 12 353 328 282 240 220 203 245 230 282 209 175 181 185 196 198 205 218 295 244 155 156 104 116 121 112 102 135 86 251 127 161 151 155 160 160 157
14 15 20 24 24 22 17 13 13 26 26 334 206 195 243 185 278 237 201 182 183 187 198 203 214 214 231 227 190 166 124 125 128 113 93 128 59 143 147 149 152 158 163 161 160
8 8 2 7 8 8 5 357 352 3 24 37 145 178 269 217 225 173 175 175 185 186 207 203 219 230 249 251 190 190 165 158 133 145 143 265 165 271 154 156 158 162 164 162 162
3 3 355 349 356 354 355 350 356 351 351 78 57 206 191 314 177 178 174 177 172 178 189 195 232 221 216 233 214 209 228 125 144 176 148 209 149 220 166 166 165 168 164 164 163
357 355 349 342 336 339 344 338 332 318 3 70 258 239 209 181 149 157 162 174 177 171 170 200 220 218 233 220 213 196 208 147 139 183 172 197 150 175 200 189 174 174 168 166 165
348 347 344 335 323 317 334 338 329 205 229 298 138 300 149 136 157 166 169 168 182 191 199 200 210 212 207 217 264 275 252 130 147 158 173 201 189 180 190 218 219 183 177 176 171
343 340 339 332 314 272 308 299 12 335 307 181 222 235 198 158 167 164 163 178 194 206 217 183 219 224 237 217 258 251 252 107 130 131 112 172 189 181 186 204 218 180 199 174 169
336 335 337 333 295 245 279 295 317 326 249 108 147 180 174 191 184 172 187 200 199 213 210 215 209 233 225 219 224 244 257 147 161 170 213 189 196 178 191 216 236 229 214 182 159
329 334 331 352 93 277 289 309 329 313 267 138 157 104 164 211 189 178 199 203 200 216 212 238 228 203 217 234 218 229 220 108 162 159 183 193 158 181 167 200 232 240 208 199 170
327 334 316 234 213 276 298 320 312 257 195 31 79 120 155 225 124 180 195 220 241 220 217 214 201 215 213 219 214 266 250 130 243 146 88 198 240 142 166 187 217 236 190 220 180
326 330 118 172 244 279 306 311 307 234 76 102 162 185 182 222 195 147 190 229 285 228 213 246 218 209 223 222 212 58 245 220 276 187 214 160 187 169 174 185 209 214 201 193 198
322 204 171 181 334 297 302 303 248 42 208 71 29 247 279 164 143 178 194 200 215 209 205 227 223 217 236 211 183 215 220 182 227 214 228 164 210 160 182 189 191 191 200 202 195
196 200 237 257 270 289 295 260 336 331 27 148 283 241 253 171 168 181 194 209 230 222 203 209 188 211 207 231 187 212 214 209 207 219 178 143 213 134 179 175 192 193 192 199 210
161 253 281 306 285 263 268 283 23 9 355 341 269 262 178 210 187 199 201 219 204 229 259 195 245 178 191 225 239 200 220 243 269 278 174 253 108 124 152 157 175 183 184 203 206
176 216 75 264 262 278 259 12 61 346 330 315 314 311 297 295 202 212 210 208 221 196 269 316 217 179 196 205 238 259 210 233 231 265 270 143 219 140 166 182 178 180 187 191 200
216 223 115 246 262 255 359 52 8 76 330 324 343 312 274 191 263 318 120 320 203 308 217 275 266 180 203 204 210 211 245 230 242 247 261 263 139 231 161 173 178 182 187 186 191
266 254 148 249 254 321 68 6 275 22 146 291 267 330 330 286 310 98 289 151 326 293 202 236 273 241 197 218 221 223 218 237 238 236 269 286 247 359 65 153 166 169 169 182 177
264 105 191 240 281 149 127 158 330 349 38 325 312 316 334 311 299 292 158 338 334 261 350 254 231 245 275 190 202 233 212 230 226 252 250 262 111 92 146 178 159 157 165 171 185
275 207 160 229 326 295 142 109 70 119 294 300 300 252 251 238 177 291 72 9 315 331 10 306 262 253 230 285 243 216 234 219 238 216 248 239 131 168 159 135 124 133 138 162 181
238 300 5 223 124 20 305 6 316 352 202 267 195 310 314 347 316 205 146 167 265 144 230 250 254 281 121 257 273 192 216 224 230 251 230 349 25 154 157 144 154 157 154 169 172
297 263 179 34 217 263 142 83 43 99 314 81 313 332 324 88 150 264 216 285 74 305 3 289 318 254 156 240 280 195 198 209 217 243 253 113 241 92 119 125 142 153 168 169 154
275 273 274 120 222 257 63 59 61 216 150 32 299 280 223 45 327 347 173 187 280 289 330 296 262 262 253 181 215 209 215 256 237 215 311 349 10 8 97 114 116 120 133 159 163